Clinton, IA

2:52 PM CST on November 22, 2017 (GMT -0600)
Clinton Municipal

Weather History for KCWI - June, 2012

Change the Weather History Date:

Tuesday, June 19, 2012

  Actual Average Record
Temperature  
Mean Temperature 82 °F -  
Max Temperature 91 °F 83 °F 99 °F (1971)
Min Temperature 73 °F 60 °F 48 °F (1970)
Cooling Degree Days 17    
Growing Degree Days 32 (Base 50)    
Moisture  
Dew Point 66 °F    
Average Humidity 57    
Maximum Humidity 69    
Minimum Humidity 43    
Precipitation  
Precipitation 0.00 in - - ()
Sea Level Pressure  
Sea Level Pressure 29.89 in    
Wind  
Wind Speed 15 mph (SSW)    
Max Wind Speed 24 mph    
Max Gust Speed 31 mph    
Visibility 10 miles    
Events      
Averages and records for this station are not official NWS values.
T = Trace of Precipitation, MM = Missing Value Source: NWS Daily Summary

Daily Weather History Graph

Daily Weather History Graph

Search for Another Location

Airport or City:

Trip Planner

Search our weather history database for the weather conditions in past years. The results will help you decide how hot, cold, wet, or windy it might be!

Date:

Astronomy

Jun. 19, 2012 Rise Set
Actual Time 5:26 AM CDT 8:39 PM CDT
Civil Twilight 4:51 AM CDT 9:13 PM CDT
Nautical Twilight 4:07 AM CDT 9:58 PM CDT
Astronomical Twilight 3:14 AM CDT 10:51 PM CDT
Moon 5:31 AM CDT (6/19) 8:43 PM CDT (6/19)
Length of Visible Light 16h 22m
Length of Day
15h 13m
New Moon, 0% of the Moon is Illuminated
Jun 19
New Moon
Jun 26
First Quarter
Jul 3
Full
Jul 10
Last Quarter
Jul 18
New

Hourly Weather History & Observations

Time (CDT) Temp. Heat Index Dew Point Humidity Pressure Visibility Wind Dir Wind Speed Gust Speed Precip Events Conditions
12:15 AM 78.8 °F - 64.4 °F 61% 29.81 in 10.0 mi SSW 13.8 mph - N/A   Clear
12:35 AM 78.8 °F - 64.4 °F 61% 29.81 in 10.0 mi SSW 12.7 mph 18.4 mph N/A   Clear
12:55 AM 78.8 °F - 62.6 °F 57% 29.81 in 10.0 mi SSW 16.1 mph - N/A   Clear
1:15 AM 78.8 °F - 62.6 °F 57% 29.81 in 10.0 mi SSW 15.0 mph - N/A   Clear
1:35 AM 78.8 °F - 62.6 °F 57% 29.81 in 10.0 mi SSW 12.7 mph - N/A   Clear
1:55 AM 78.8 °F - 62.6 °F 57% 29.82 in 10.0 mi SSW 13.8 mph - N/A   Clear
2:15 AM 77.0 °F - 62.6 °F 61% 29.82 in 10.0 mi SSW 13.8 mph - N/A   Clear
2:35 AM 75.2 °F - 62.6 °F 65% 29.82 in 10.0 mi South 11.5 mph - N/A   Clear
2:55 AM 75.2 °F - 62.6 °F 65% 29.82 in 10.0 mi SSW 13.8 mph - N/A   Clear
3:15 AM 75.2 °F - 62.6 °F 65% 29.82 in 10.0 mi SSW 13.8 mph - N/A   Clear
3:35 AM 75.2 °F - 62.6 °F 65% 29.82 in 10.0 mi SSW 15.0 mph - N/A   Clear
4:15 AM 73.4 °F - 62.6 °F 69% 29.83 in 10.0 mi South 11.5 mph - N/A   Clear
4:35 AM 73.4 °F - 62.6 °F 69% 29.84 in 10.0 mi SSW 10.4 mph - N/A   Clear
4:55 AM 73.4 °F - 62.6 °F 69% 29.85 in 10.0 mi South 10.4 mph - N/A   Partly Cloudy
5:15 AM 73.4 °F - 62.6 °F 69% 29.85 in 10.0 mi South 9.2 mph - N/A   Clear
5:35 AM 73.4 °F - 62.6 °F 69% 29.86 in 10.0 mi South 9.2 mph - N/A   Clear
5:55 AM 73.4 °F - 62.6 °F 69% 29.86 in 10.0 mi South 11.5 mph - N/A   Clear
6:15 AM 73.4 °F - 62.6 °F 69% 29.87 in 10.0 mi SSW 10.4 mph - N/A   Partly Cloudy
6:35 AM 73.4 °F - 62.6 °F 69% 29.88 in 10.0 mi SSW 10.4 mph - N/A   Clear
6:55 AM 75.2 °F - 64.4 °F 69% 29.88 in 10.0 mi SSW 10.4 mph - N/A   Clear
7:15 AM 77.0 °F - 64.4 °F 65% 29.89 in 10.0 mi SSW 11.5 mph - N/A   Clear
7:35 AM 78.8 °F - 64.4 °F 61% 29.89 in 10.0 mi SSW 13.8 mph - N/A   Clear
7:55 AM 78.8 °F - 64.4 °F 61% 29.90 in 10.0 mi SSW 15.0 mph 20.7 mph N/A   Clear
8:15 AM 80.6 °F 82.3 °F 64.4 °F 58% 29.90 in 10.0 mi SSW 15.0 mph - N/A   Clear
8:35 AM 80.6 °F 82.3 °F 64.4 °F 58% 29.91 in 10.0 mi SW 17.3 mph 21.9 mph N/A   Clear
8:55 AM 82.4 °F 83.9 °F 64.4 °F 54% 29.91 in 10.0 mi SW 17.3 mph 20.7 mph N/A   Clear
9:15 AM 82.4 °F 84.6 °F 66.2 °F 58% 29.92 in 10.0 mi SSW 20.7 mph 25.3 mph N/A   Clear
9:35 AM 82.4 °F 84.6 °F 66.2 °F 58% 29.92 in 10.0 mi SSW 16.1 mph 21.9 mph N/A   Clear
9:55 AM 84.2 °F 86.6 °F 66.2 °F 55% 29.93 in 10.0 mi SW 13.8 mph - N/A   Clear
10:15 AM 84.2 °F 86.6 °F 66.2 °F 55% 29.93 in 10.0 mi SSW 16.1 mph - N/A   Clear
10:35 AM 86.0 °F 88.2 °F 66.2 °F 51% 29.93 in 10.0 mi SW 17.3 mph 21.9 mph N/A   Clear
10:55 AM 87.8 °F 91.4 °F 68.0 °F 52% 29.93 in 10.0 mi SW 13.8 mph 20.7 mph N/A   Clear
11:15 AM 87.8 °F 90.4 °F 66.2 °F 49% 29.92 in 10.0 mi SSW 16.1 mph 21.9 mph N/A   Clear
11:35 AM 87.8 °F 91.4 °F 68.0 °F 52% 29.92 in 10.0 mi SSW 13.8 mph - N/A   Clear
11:55 AM 89.6 °F 93.4 °F 68.0 °F 49% 29.91 in 10.0 mi SSW 17.3 mph 24.2 mph N/A   Clear
12:15 PM 89.6 °F 93.4 °F 68.0 °F 49% 29.92 in 10.0 mi SSW 18.4 mph 21.9 mph N/A   Clear
12:35 PM 89.6 °F 93.4 °F 68.0 °F 49% 29.92 in 10.0 mi SSW 15.0 mph 24.2 mph N/A   Clear
12:55 PM 89.6 °F 93.4 °F 68.0 °F 49% 29.92 in 10.0 mi SSW 20.7 mph 27.6 mph N/A   Clear
1:15 PM 89.6 °F 93.4 °F 68.0 °F 49% 29.91 in 10.0 mi South 19.6 mph 26.5 mph N/A   Partly Cloudy
1:35 PM 91.4 °F 94.0 °F 66.2 °F 43% 29.91 in 10.0 mi South 16.1 mph 25.3 mph N/A   Partly Cloudy
1:55 PM 91.4 °F 96.8 °F 69.8 °F 49% 29.91 in 10.0 mi South 18.4 mph 25.3 mph N/A   Partly Cloudy
2:15 PM 89.6 °F 93.4 °F 68.0 °F 49% 29.90 in 10.0 mi South 20.7 mph 28.8 mph N/A   Partly Cloudy
2:35 PM 91.4 °F 96.8 °F 69.8 °F 49% 29.90 in 10.0 mi South 20.7 mph 27.6 mph N/A   Scattered Clouds
2:55 PM 91.4 °F 96.8 °F 69.8 °F 49% 29.89 in 10.0 mi South 20.7 mph - N/A   Partly Cloudy
3:15 PM 91.4 °F 96.8 °F 69.8 °F 49% 29.89 in 10.0 mi South 21.9 mph 29.9 mph N/A   Partly Cloudy
3:35 PM 91.4 °F 96.8 °F 69.8 °F 49% 29.89 in 10.0 mi South 20.7 mph 31.1 mph N/A   Partly Cloudy
3:55 PM 91.4 °F 96.8 °F 69.8 °F 49% 29.89 in 10.0 mi South 23.0 mph 28.8 mph N/A   Scattered Clouds
4:15 PM 89.6 °F 94.7 °F 69.8 °F 52% 29.89 in 10.0 mi South 20.7 mph 27.6 mph N/A   Scattered Clouds
4:35 PM 91.4 °F 96.8 °F 69.8 °F 49% 29.89 in 10.0 mi South 20.7 mph 26.5 mph N/A   Scattered Clouds
4:55 PM 89.6 °F 94.7 °F 69.8 °F 52% 29.89 in 10.0 mi South 19.6 mph 28.8 mph N/A   Mostly Cloudy
5:15 PM 89.6 °F 94.7 °F 69.8 °F 52% 29.88 in 10.0 mi South 20.7 mph 26.5 mph N/A   Scattered Clouds
5:35 PM 89.6 °F 94.7 °F 69.8 °F 52% 29.88 in 10.0 mi South 24.2 mph 28.8 mph N/A   Scattered Clouds
5:55 PM 89.6 °F 93.4 °F 68.0 °F 49% 29.88 in 10.0 mi South 20.7 mph 28.8 mph N/A   Scattered Clouds
6:15 PM 89.6 °F 94.7 °F 69.8 °F 52% 29.89 in 10.0 mi South 19.6 mph 26.5 mph N/A   Partly Cloudy
6:35 PM 87.8 °F 91.4 °F 68.0 °F 52% 29.89 in 10.0 mi South 18.4 mph - N/A   Partly Cloudy
6:55 PM 87.8 °F 91.4 °F 68.0 °F 52% 29.89 in 10.0 mi South 16.1 mph 26.5 mph N/A   Partly Cloudy
7:15 PM 87.8 °F 91.4 °F 68.0 °F 52% 29.89 in 10.0 mi South 16.1 mph 21.9 mph N/A   Clear
7:35 PM 86.0 °F 88.2 °F 66.2 °F 51% 29.89 in 10.0 mi South 19.6 mph 24.2 mph N/A   Partly Cloudy
7:55 PM 86.0 °F 88.2 °F 66.2 °F 51% 29.90 in 10.0 mi South 15.0 mph 23.0 mph N/A   Clear
8:15 PM 84.2 °F 86.6 °F 66.2 °F 55% 29.90 in 10.0 mi South 19.6 mph 23.0 mph N/A   Clear
8:35 PM 84.2 °F 86.6 °F 66.2 °F 55% 29.90 in 10.0 mi South 16.1 mph 23.0 mph N/A   Clear
8:55 PM 84.2 °F 86.6 °F 66.2 °F 55% 29.90 in 10.0 mi South 19.6 mph 25.3 mph N/A   Clear
9:15 PM 82.4 °F 84.6 °F 66.2 °F 58% 29.91 in 10.0 mi South 13.8 mph 19.6 mph N/A   Clear
9:35 PM 82.4 °F 84.6 °F 66.2 °F 58% 29.91 in 10.0 mi South 16.1 mph 23.0 mph N/A   Clear
9:55 PM 82.4 °F 84.6 °F 66.2 °F 58% 29.92 in 10.0 mi South 15.0 mph - N/A   Clear
10:15 PM 80.6 °F 82.3 °F 64.4 °F 58% 29.92 in 10.0 mi South 15.0 mph - N/A   Clear
10:35 PM 80.6 °F 82.3 °F 64.4 °F 58% 29.92 in 10.0 mi South 15.0 mph - N/A   Clear
10:55 PM 80.6 °F 82.3 °F 64.4 °F 58% 29.93 in 10.0 mi South 13.8 mph - N/A   Clear
11:15 PM 80.6 °F 82.3 °F 64.4 °F 58% 29.93 in 10.0 mi South 13.8 mph - N/A   Clear
11:35 PM 78.8 °F - 64.4 °F 61% 29.93 in 10.0 mi South 13.8 mph 19.6 mph N/A   Clear
11:55 PM 78.8 °F - 64.4 °F 61% 29.93 in 10.0 mi South 13.8 mph - N/A   Clear